This demonstration page uses our WeatherBlox Daily Observations layout. Learn more.

Left ArrowRight Arrow

Hourly Observations for July 19, 2016

Temp ( °F °C ) Dew Point ( °F °C ) Humidity (%) Winds ( mph kmh ) Pressure ( in mb ) Visibility ( mi km ) Precip ( " mm )
12:53 am 00:53 Clear 78 25.6 73 22.8 85 85 undefined N/A 30.06 1018 10 16 0.00 0.00
1:53 am 01:53 Clear 77 25 72 22.2 85 85 SSE 9 15 30.06 1018 10 16 0.00 0.00
2:53 am 02:53 Partly Cloudy 78 25.6 72 22.2 82 82 W 12 19 30.12 1020 10 16 0.00 0.00
3:53 am 03:53 Clear 74 23.3 64 17.8 71 71 undefined N/A 30.14 1021 10 16 0.00 0.00
4:53 am 04:53 Clear 72 22.2 65 18.3 79 79 ENE 5 7 30.09 1019 10 16 0.00 0.00
5:53 am 05:53 Partly Cloudy 70 21.1 65 18.3 84 84 NW 6 9 30.14 1021 10 16 0.00 0.00
6:53 am 06:53 Sunny 72 22.2 64 17.8 76 76 SSE 8 13 30.08 1019 10 16 0.00 0.00
7:53 am 07:53 Sunny 71 21.7 65 18.3 81 81 S 9 15 30.07 1018 10 16 0.00 0.00
8:53 am 08:53 Sunny 74 23.3 65 18.3 74 74 S 10 17 30.06 1018 10 16 0.00 0.00
9:53 am 09:53 Sunny 76 24.4 65 18.3 69 69 SE 10 17 30.06 1018 10 16 0.00 0.00
10:53 am 10:53 Partly Cloudy 80 26.7 69 20.6 69 69 S 8 13 30.06 1018 10 16 0.00 0.03
11:53 am 11:53 Sunny 88 31.1 69 20.6 54 54 SSW 13 20 30.04 1017 10 16 0.00 0.00
12:53 pm 12:53 Sunny 89 31.7 69 20.6 52 52 SSW 15 24 30.03 1017 10 16 0.00 0.00
1:53 pm 13:53 Sunny 93 33.9 67 19.4 42 42 SSW 16 26 30.02 1017 10 16 0.00 0.00
2:53 pm 14:53 Sunny 94 34.4 66 18.9 40 40 SSW 13 20 30.01 1016 10 16 0.00 0.00
3:53 pm 15:53 Sunny 94 34.4 65 18.3 38 38 S 13 20 30.00 1016 10 16 0.00 0.00
4:53 pm 16:53 Sunny 95 35 66 18.9 39 39 S 13 20 29.99 1016 10 16 0.00 0.00
5:53 pm 17:53 Sunny 94 34.4 66 18.9 40 40 S 14 22 29.98 1015 10 16 0.00 0.00
6:53 pm 18:53 Sunny 93 33.9 67 19.4 42 42 S 10 17 29.96 1015 10 16 0.00 0.00
7:53 pm 19:53 Sunny 89 31.7 68 20 50 50 SSE 10 17 29.97 1015 10 16 0.00 0.00
8:53 pm 20:53 Sunny 86 30 66 18.9 51 51 S 9 15 29.96 1015 10 16 0.00 0.00
9:53 pm 21:53 Clear 82 27.8 65 18.3 56 56 S 9 15 29.97 1015 10 16 0.00 0.00
10:53 pm 22:53 Clear 79 26.1 65 18.3 62 62 S 9 15 29.98 1015 10 16 0.00 0.00
11:53 pm 23:53 Clear 78 25.6 66 18.9 67 67 S 8 13 29.98 1015 10 16 0.00 0.00

Powered by AerisWeather